Tracking 31027 objects as of 19-Jul-2025
HD Live streaming from Space Station
objects crossing your sky now

COSMOS 2251 DEB

Track COSMOS 2251 DEB now!
10-day predictions


NORAD ID: 40233
Int'l Code: 1993-036BVN
Perigee: 676.4 km
Apogee: 747.0 km
Inclination: 73.9 °
Period: 98.9 minutes
Semi major axis: 7082 km
RCS: Unknown
Launch date: June 16, 1993
Source: Commonwealth of Independent States (former USSR) (CIS)
Launch site: PLESETSK MISSILE AND SPACE COMPLEX (PKMTR)

Note: This is SATELLITE DEBRIS
Your satellite tracking list
FENGYUN 1C DEB
Track 1 satellite(s)




NASA's NSSDC Master Catalog

Two Line Element Set (TLE):
1 40233U 93036BVN 25196.88241305  .00002987  00000-0  66711-3 0  9997
2 40233  73.9406  29.5116 0049842 137.1298 223.3768 14.56482419569549
Source of the keplerian elements: AFSPC